Weather in Vnov-Yurmytskoye

Russia / Sverdlovsk Oblast     57°12′06″N   63°20′39″E
temp.,
°C
wind,
m/s
gust,
m/s
humid.,
%
clouds,
%
prec.,
mm/h
press.,
hPa
HPBL,
m
26 july, mon
mon2623:00+11nnw3966100 0.0 1016192
02:00+12nw266283 0.0 1017198
05:00+8wnw38795 0.0 1018173
08:00+13wnw47575 0.0 1017413
11:00+16wnw5748100 0.0 10171286
14:00+19wnw4639100 0.0 10162621
17:00+18wnw364222 0.0 10161756
20:00+15w2760100 0.0 1015178
27 july, tue
tue2723:00+12wsw377094 0.0 1015154
02:00+10w39815 0.0 1014192
05:00+9wsw37905 0.0 1013140
08:00+14sw3970100 0.0 1012339
11:00+19w6956100 0.1 10101783
14:00+12w3897100 2.6 1011439
17:00+17w476835 2.9 10091123
20:00+15wsw3977100 0.5 1008345
28 july, wed
wed2823:00+10nw388273 0.6 1009160
02:00+11nw48735 0.0 1009299
05:00+6wnw39895 0.0 1010209
08:00+12wnw496683 0.0 1009647
11:00+16wnw5849100 0.0 10081907
14:00+14wnw576597 0.6 10081342
17:00+15nw584691 1.3 10082069
20:00+12n23637 0.0 101079
29 july, thu
thu2923:00+10sw226428 0.0 101045
02:00+7wnw2776100 0.0 1010139
05:00+6w2683100 0.0 1011133
08:00+8sw2491100 0.4 1010150
11:00+9ssw369059 0.6 1010332
14:00+16w356275 0.0 10091303
17:00+19w255323 0.1 10071461
20:00+13n1296100 1.7 100757
30 july, fri
fri3023:00+12ssw399791 2.5 1007208
02:00+12sw3997100 0.1 1005205
05:00+12wsw289884 0.1 1005218
08:00+15wnw249268 0.0 1006246
11:00+21wsw3464100 0.0 1006903
14:00+22sw3471100 0.8 10051131
17:00+23ssw345764 1.3 10041279
20:00+18ssw248899 0.8 100479